TimeEST,TemperatureF,Dew PointF,Humidity,Sea Level PressureIn,VisibilityMPH,Wind Direction,Wind SpeedMPH,Gust SpeedMPH,PrecipitationIn,Events,Conditions,WindDirDegrees,DateUTC
12:51 AM,32.0,27.0,82,29.95,10.0,West,18.4,-,N/A,,Overcast,280,2012-12-22 05:51:00
1:51 AM,32.0,26.1,79,29.98,10.0,West,16.1,-,N/A,,Overcast,280,2012-12-22 06:51:00
2:51 AM,32.0,25.0,75,30.02,10.0,WNW,10.4,20.7,N/A,,Mostly Cloudy,290,2012-12-22 07:51:00
3:51 AM,30.9,25.0,79,30.04,10.0,West,17.3,-,N/A,,Overcast,280,2012-12-22 08:51:00
4:51 AM,30.2,24.8,80,30.03,10.0,West,17.3,-,N/A,,Overcast,280,2012-12-22 09:51:00
5:51 AM,30.0,25.0,82,30.08,10.0,West,16.1,-,N/A,,Overcast,260,2012-12-22 10:51:00
6:07 AM,30.2,24.8,80,30.06,10.0,West,15.0,-,N/A,,Overcast,270,2012-12-22 11:07:00
6:51 AM,30.0,24.1,79,30.10,10.0,West,17.3,-,N/A,,Overcast,280,2012-12-22 11:51:00
7:18 AM,30.2,24.8,80,30.08,10.0,West,15.0,-,N/A,,Overcast,270,2012-12-22 12:18:00
7:28 AM,30.2,24.8,80,30.08,10.0,West,16.1,-,N/A,,Overcast,280,2012-12-22 12:28:00
7:51 AM,30.0,24.1,79,30.11,10.0,West,17.3,-,N/A,,Overcast,270,2012-12-22 12:51:00
8:51 AM,30.0,24.1,79,30.14,10.0,West,16.1,-,N/A,,Overcast,270,2012-12-22 13:51:00
9:51 AM,30.0,23.0,75,30.17,10.0,West,17.3,21.9,N/A,,Overcast,270,2012-12-22 14:51:00
10:51 AM,30.0,23.0,75,30.18,10.0,West,17.3,-,N/A,,Overcast,270,2012-12-22 15:51:00
11:51 AM,30.0,23.0,75,30.17,10.0,West,16.1,-,N/A,,Overcast,270,2012-12-22 16:51:00
12:51 PM,30.0,21.9,72,30.16,10.0,West,19.6,24.2,N/A,,Overcast,280,2012-12-22 17:51:00
1:51 PM,30.0,21.9,72,30.16,10.0,West,16.1,-,N/A,,Overcast,260,2012-12-22 18:51:00
2:51 PM,30.0,21.0,69,30.16,10.0,WSW,12.7,-,N/A,,Overcast,250,2012-12-22 19:51:00
3:51 PM,28.9,21.0,72,30.15,10.0,WSW,10.4,-,N/A,,Mostly Cloudy,250,2012-12-22 20:51:00
4:35 PM,28.4,19.4,69,30.13,10.0,West,10.4,-,N/A,,Scattered Clouds,280,2012-12-22 21:35:00
4:51 PM,28.9,19.9,69,30.15,10.0,WSW,9.2,-,N/A,,Clear,240,2012-12-22 21:51:00
5:51 PM,28.0,19.9,72,30.14,10.0,SW,4.6,-,N/A,,Partly Cloudy,220,2012-12-22 22:51:00
6:51 PM,27.0,19.9,75,30.15,10.0,Calm,Calm,-,N/A,,Clear,0,2012-12-22 23:51:00
7:51 PM,26.1,21.0,81,30.15,10.0,South,3.5,-,N/A,,Clear,180,2012-12-23 00:51:00
8:51 PM,27.0,21.0,78,30.14,10.0,South,3.5,-,N/A,,Partly Cloudy,180,2012-12-23 01:51:00
9:51 PM,26.6,21.2,80,30.10,10.0,South,4.6,-,N/A,,Scattered Clouds,180,2012-12-23 02:51:00
10:51 PM,25.0,21.0,85,30.12,10.0,SSE,3.5,-,N/A,,Clear,150,2012-12-23 03:51:00
11:51 PM,25.0,21.0,85,30.11,10.0,Calm,Calm,-,N/A,,Clear,0,2012-12-23 04:51:00